Snowfall_Accumulation
0.0 0.0 0.0 0.0 0.0 0.0 0.0 0.0 0.0 0.0 0.0 0.0 0.0 0.0 0.0 0.0 0.0 0.0 0.0 nan nan nan nan nan nan nan nan nan nan nan nan nan nan nan nan nan nan nan
0.0 0.0 0.0 0.0 0.0 0.0 0.0 0.0 0.0 0.0 0.0 0.0 0.0 0.0 0.0 0.0 0.0 0.0 0.0 nan nan nan nan nan nan nan nan nan nan nan nan nan nan nan nan nan nan nan
0.0 0.0 0.0 0.0 0.0 0.0 0.0 0.0 0.0 0.0 0.0 0.0 0.0 0.0 0.0 0.0 0.0 0.0 0.0 0.0 0.0 nan nan nan nan nan nan nan nan nan nan nan nan nan nan nan nan nan
0.0 0.0 0.0 0.0 0.0 0.0 0.0 0.0 0.0 0.0 0.0 0.0 0.0 0.0 0.0 0.0 0.0 0.0 0.0 0.0 0.0 nan nan nan nan nan nan nan nan nan nan nan nan nan nan nan nan nan
0.0 0.0 0.0 0.0 0.0 0.0 0.0 0.0 0.0 0.0 0.0 0.0 0.0 0.0 0.0 0.0 0.0 0.0 0.0 0.0 0.0 nan nan nan nan nan nan nan nan nan nan nan nan nan nan nan nan nan
0.0 0.0 0.0 0.0 0.0 0.0 0.0 0.0 0.0 0.0 0.0 0.0 0.1 0.5 0.3 0.0 0.0 0.0 0.0 0.0 0.0 0.0 nan nan nan nan nan nan nan nan nan nan nan nan nan nan nan nan
0.0 0.0 0.0 nan nan nan 0.0 0.0 0.0 0.0 0.2 1.9 1.0 0.7 0.3 0.0 0.0 0.0 0.0 0.0 0.0 0.0 0.0 0.0 0.0 0.0 0.0 nan nan nan nan nan nan nan nan nan nan nan
0.0 0.0 0.0 0.0 0.0 nan nan nan nan 0.3 1.4 1.7 1.7 0.0 0.0 0.0 0.0 0.0 0.3 1.3 1.9 0.0 0.0 0.0 0.0 0.0 0.0 0.0 nan nan nan nan nan nan nan nan nan nan
0.0 0.0 0.0 0.0 nan 0.0 nan nan nan nan nan 0.0 0.0 0.0 0.0 0.0 0.6 1.4 0.7 1.2 0.3 0.0 0.0 0.2 0.0 0.0 0.0 0.0 nan nan nan nan nan nan nan nan nan nan
0.0 0.0 0.0 0.0 0.0 0.0 0.1 0.3 0.2 0.1 0.0 0.0 0.0 0.0 0.1 0.0 0.4 0.3 0.1 0.5 0.0 0.0 0.0 3.1 0.0 0.0 0.0 0.0 nan nan nan nan nan nan nan nan nan nan
0.0 0.0 0.0 0.0 nan nan 0.1 1.3 0.0 0.0 nan nan nan nan nan nan nan 0.4 2.3 4.2 0.5 0.0 0.0 0.3 0.0 0.1 0.0 0.0 0.0 nan nan nan nan nan nan nan nan nan
0.0 0.0 nan 0.0 nan nan 0.1 0.0 0.2 0.1 0.2 0.2 0.0 0.0 nan nan nan 0.0 2.5 9.6 5.0 4.4 0.1 3.6 0.2 0.5 3.9 0.0 0.0 0.0 0.0 nan nan nan nan nan nan 0.0
0.0 0.0 0.0 nan nan nan nan 0.0 0.1 0.0 0.0 0.0 0.0 0.0 0.0 0.0 0.0 0.2 0.3 7.0 10.8 7.5 0.0 2.8 6.3 3.0 3.9 3.5 0.0 0.0 0.0 0.0 0.1 0.1 nan nan nan 0.2
0.1 0.0 0.0 nan nan nan nan nan nan nan 0.0 0.0 0.0 0.0 1.8 3.3 2.2 1.9 0.6 1.7 1.8 5.1 1.6 3.4 16.6 6.9 9.4 6.0 3.1 0.0 0.2 0.3 0.9 1.1 1.2 nan nan nan
0.0 0.0 nan nan nan nan nan nan nan 0.3 0.0 0.5 0.4 3.3 4.7 2.9 3.3 3.0 2.6 2.0 2.1 1.7 1.8 3.7 7.8 6.7 6.3 7.3 5.2 2.9 1.7 0.8 1.3 2.6 1.7 1.6 1.3 1.0
nan 0.9 nan 0.0 nan nan 0.0 0.0 0.3 0.0 0.4 1.0 0.8 0.2 0.0 6.4 3.6 2.7 4.8 3.1 4.9 3.7 2.9 3.3 4.8 6.0 10.0 4.5 6.0 4.6 3.1 9.6 1.7 1.7 2.1 1.3 0.5 0.4
nan 0.0 0.0 0.0 0.5 0.0 0.0 0.0 0.0 0.0 1.7 1.6 1.1 0.8 0.3 3.3 3.7 3.3 4.3 5.0 6.5 5.5 4.6 3.6 2.3 2.7 3.2 5.3 6.6 2.0 1.2 1.9 3.0 3.8 2.9 2.6 1.3 1.0
0.0 0.0 0.6 0.8 0.9 0.0 0.1 0.1 0.1 1.9 2.2 4.0 4.4 5.4 5.2 6.3 6.0 6.6 6.1 5.9 7.2 5.4 5.5 4.8 5.5 7.3 4.9 4.7 3.7 2.5 2.2 3.2 3.1 2.6 1.9 4.6 3.0 1.0
0.0 1.7 1.7 1.8 1.7 2.0 2.6 3.7 4.4 3.6 4.2 5.9 8.8 10.5 11.2 9.9 8.0 7.0 7.2 6.7 7.7 5.9 6.5 7.4 11.6 13.8 12.8 10.2 3.1 nan 6.6 4.7 4.0 2.5 1.8 3.1 5.9 3.7
0.0 1.0 2.8 2.3 2.3 3.4 4.2 4.4 4.6 4.1 4.4 6.1 9.1 13.3 14.6 14.1 11.4 11.7 9.1 10.1 9.8 8.9 10.1 12.3 15.9 19.5 21.5 18.6 11.4 6.8 nan 5.1 4.0 4.0 5.6 1.2 1.5 nan
0.1 2.4 1.9 2.8 3.5 4.6 5.0 7.4 6.4 7.3 9.3 12.1 12.2 14.9 14.4 15.6 12.3 10.1 9.0 6.2 nan 9.1 11.7 11.0 12.9 nan 16.2 10.6 9.2 4.1 4.1 nan 1.5 6.4 5.4 4.4 3.6 1.3
0.1 2.0 2.3 3.5 4.7 6.6 7.7 7.2 6.7 6.9 6.4 9.3 9.0 12.8 11.6 13.0 12.5 9.4 5.6 8.7 5.7 7.8 10.4 10.5 8.0 10.5 15.1 12.6 10.1 4.8 3.5 1.9 nan nan nan nan 10.4 13.9
2.2 2.0 3.4 5.2 6.9 8.1 7.8 6.7 6.3 8.9 7.7 10.8 11.8 12.7 11.9 12.3 6.4 5.9 5.8 4.8 6.2 7.2 7.3 7.0 6.4 6.2 7.4 9.0 12.1 6.8 4.3 3.2 2.5 3.7 3.7 nan nan nan
Water_Equivalent
0.00 0.00 0.00 0.00 0.00 0.00 0.00 0.00 0.00 0.00 0.00 0.00 0.00 0.00 0.00 0.00 0.00 0.00 0.00 nan nan nan nan nan nan nan nan nan nan nan nan nan nan nan nan nan nan nan
0.00 0.00 0.00 0.00 0.00 0.00 0.00 0.00 0.00 0.00 0.00 0.00 0.00 0.00 0.00 0.00 0.00 0.00 0.00 nan nan nan nan nan nan nan nan nan nan nan nan nan nan nan nan nan nan nan
0.00 0.00 0.00 0.00 0.00 0.00 0.00 0.00 0.00 0.00 0.00 0.00 0.00 0.00 0.00 0.00 0.00 0.00 0.00 0.00 0.00 nan nan nan nan nan nan nan nan nan nan nan nan nan nan nan nan nan
0.00 0.00 0.00 0.00 0.00 0.00 0.00 0.00 0.00 0.00 0.00 0.00 0.00 0.00 0.00 0.00 0.00 0.00 0.00 0.00 0.00 nan nan nan nan nan nan nan nan nan nan nan nan nan nan nan nan nan
0.00 0.00 0.00 0.00 0.00 0.00 0.00 0.00 0.00 0.00 0.00 0.00 0.00 0.00 0.00 0.00 0.00 0.00 0.00 0.00 0.00 nan nan nan nan nan nan nan nan nan nan nan nan nan nan nan nan nan
0.00 0.00 0.00 0.00 0.00 0.00 0.00 0.00 0.00 0.00 0.00 0.00 0.02 0.08 0.06 0.00 0.00 0.00 0.00 0.00 0.00 0.00 nan nan nan nan nan nan nan nan nan nan nan nan nan nan nan nan
0.00 0.00 0.00 nan nan nan 0.00 0.00 0.00 0.00 0.04 0.33 0.16 0.11 0.04 0.00 0.00 0.00 0.00 0.00 0.00 0.00 0.00 0.00 0.00 0.00 0.00 nan nan nan nan nan nan nan nan nan nan nan
0.00 0.00 0.00 0.00 0.00 nan nan nan nan 0.06 0.23 0.28 0.26 0.01 0.00 0.00 0.00 0.00 0.05 0.18 0.25 0.00 0.00 0.00 0.00 0.00 0.00 0.00 nan nan nan nan nan nan nan nan nan nan
0.00 0.00 0.00 0.00 nan 0.00 nan nan nan nan nan 0.00 0.00 0.00 0.01 0.00 0.10 0.19 0.10 0.16 0.04 0.00 0.00 0.03 0.00 0.00 0.00 0.00 nan nan nan nan nan nan nan nan nan nan
0.00 0.00 0.00 0.00 0.00 0.00 0.02 0.06 0.05 0.02 0.00 0.00 0.00 0.00 0.02 0.01 0.06 0.04 0.02 0.06 0.01 0.00 0.00 0.37 0.00 0.00 0.00 0.00 nan nan nan nan nan nan nan nan nan nan
0.00 0.00 0.00 0.00 nan nan 0.02 0.21 0.01 0.00 nan nan nan nan nan nan nan 0.08 0.29 0.49 0.06 0.00 0.00 0.04 0.00 0.01 0.00 0.00 0.00 nan nan nan nan nan nan nan nan nan
0.00 0.00 nan 0.00 nan nan 0.02 0.00 0.03 0.02 0.03 0.03 0.00 0.00 nan nan nan 0.00 0.36 1.04 0.56 0.48 0.01 0.42 0.02 0.06 0.43 0.00 0.00 0.00 0.00 nan nan nan nan nan nan 0.00
0.00 0.00 0.00 nan nan nan nan 0.00 0.02 0.00 0.00 0.00 0.00 0.00 0.00 0.00 0.00 0.02 0.05 0.80 1.15 0.79 0.00 0.37 0.76 0.37 0.47 0.41 0.00 0.00 0.00 0.01 0.02 0.01 nan nan nan 0.04
0.01 0.00 0.01 nan nan nan nan nan nan nan 0.00 0.00 0.00 0.01 0.21 0.36 0.30 0.26 0.08 0.21 0.23 0.59 0.20 0.42 1.90 0.78 1.02 0.67 0.36 0.00 0.06 0.08 0.19 0.22 0.24 nan nan nan
0.00 0.00 nan nan nan nan nan nan nan 0.05 0.00 0.06 0.04 0.34 0.48 0.34 0.36 0.34 0.32 0.25 0.26 0.23 0.25 0.50 0.96 0.75 0.68 0.78 0.57 0.37 0.26 0.19 0.31 0.47 0.33 0.30 0.24 0.22
nan 0.16 nan 0.00 nan nan 0.00 0.00 0.05 0.00 0.05 0.11 0.08 0.02 0.01 0.67 0.39 0.35 0.53 0.36 0.57 0.46 0.42 0.49 0.62 0.67 1.09 0.52 0.70 0.55 0.43 1.14 0.34 0.36 0.44 0.34 0.16 0.10
nan 0.00 0.00 0.00 0.07 0.00 0.00 0.00 0.00 0.00 0.18 0.17 0.12 0.08 0.04 0.34 0.38 0.39 0.50 0.60 0.70 0.59 0.49 0.46 0.32 0.37 0.47 0.66 0.76 0.29 0.19 0.30 0.56 0.74 0.56 0.51 0.36 0.30
0.00 0.00 0.07 0.10 0.10 0.01 0.01 0.01 0.01 0.19 0.23 0.41 0.46 0.55 0.54 0.65 0.62 0.70 0.67 0.64 0.76 0.58 0.58 0.52 0.64 0.80 0.64 0.63 0.55 0.34 0.35 0.52 0.59 0.55 0.44 0.76 0.55 0.31
0.00 0.17 0.18 0.18 0.18 0.20 0.26 0.37 0.44 0.37 0.44 0.61 0.92 1.11 1.18 1.04 0.85 0.74 0.77 0.71 0.81 0.63 0.69 0.81 1.24 1.47 1.35 1.05 0.43 nan 0.91 0.72 0.66 0.45 0.40 0.58 0.98 0.81
0.01 0.11 0.29 0.24 0.23 0.35 0.42 0.45 0.47 0.42 0.45 0.63 0.95 1.41 1.55 1.49 1.21 1.24 0.97 1.07 1.03 0.93 1.07 1.32 1.73 2.15 2.34 1.98 1.21 0.83 nan 0.84 0.64 0.61 0.90 0.27 0.37 nan
0.01 0.24 0.19 0.29 0.36 0.47 0.51 0.76 0.66 0.75 0.98 1.27 1.28 1.58 1.53 1.66 1.31 1.06 0.94 0.65 nan 0.95 1.24 1.17 1.43 nan 2.08 1.26 1.05 0.52 0.64 nan 0.31 1.00 0.87 0.59 0.55 0.24
0.01 0.21 0.23 0.35 0.48 0.68 0.79 0.75 0.69 0.72 0.65 0.97 0.93 1.34 1.22 1.38 1.30 0.98 0.58 0.91 0.59 0.82 1.10 1.20 0.98 1.29 1.73 1.40 1.07 0.51 0.44 0.32 nan nan nan nan 1.50 1.77
0.22 0.21 0.34 0.53 0.71 0.84 0.81 0.69 0.65 0.92 0.79 1.11 1.23 1.33 1.25 1.28 0.67 0.61 0.61 0.51 0.66 0.77 0.78 0.74 0.72 0.76 0.88 1.06 1.30 0.75 0.45 0.39 0.35 0.51 0.60 nan nan nan
SL_Ratio
nan nan nan nan nan nan nan nan nan nan nan nan nan nan nan nan nan nan nan nan nan nan nan nan nan nan nan nan nan nan nan nan nan nan nan nan nan nan
nan nan nan nan nan nan nan nan nan nan nan nan nan nan nan nan nan nan nan nan nan nan nan nan nan nan nan nan nan nan nan nan nan nan nan nan nan nan
nan nan nan nan nan nan nan nan nan nan nan nan nan nan nan nan nan nan nan nan nan nan nan nan nan nan nan nan nan nan nan nan nan nan nan nan nan nan
nan nan nan nan nan nan nan nan nan nan nan nan nan nan nan nan nan nan nan nan nan nan nan nan nan nan nan nan nan nan nan nan nan nan nan nan nan nan
nan nan nan nan nan nan nan nan nan nan nan nan nan nan nan 5.0 5.0 nan nan nan nan nan nan nan nan nan nan nan nan nan nan nan nan nan nan nan nan nan
nan nan nan nan nan nan nan nan nan nan nan nan 5.7 5.6 5.4 6.7 7.5 nan nan nan nan nan nan nan nan nan nan nan nan nan nan nan nan nan nan nan nan nan
nan nan nan nan nan nan nan nan nan nan 5.6 5.9 6.1 6.2 5.9 nan nan nan nan nan nan 5.0 nan nan nan nan nan nan nan nan nan nan nan nan nan nan nan nan
nan nan nan nan nan nan nan nan nan 5.4 6.0 6.2 6.6 6.4 nan nan nan nan 6.7 7.0 7.7 nan nan nan nan nan nan nan nan nan nan nan nan nan nan nan nan nan
nan nan nan nan nan nan nan nan nan nan nan 6.0 6.7 5.0 6.5 7.0 6.5 7.2 6.9 7.5 7.2 nan 5.8 7.3 nan nan nan nan nan nan nan nan nan nan nan nan nan nan
nan nan nan nan nan nan 4.8 5.2 5.2 5.1 nan nan nan 6.7 5.5 5.0 6.5 7.1 6.6 7.5 6.3 nan nan 8.4 nan 6.7 nan nan nan nan nan nan nan nan nan nan nan nan
nan nan nan 5.0 nan nan 4.7 6.0 5.8 nan nan nan nan nan nan nan nan 5.4 8.0 8.6 8.9 6.5 nan 6.1 6.7 5.3 nan nan nan nan nan nan nan nan nan nan nan nan
nan nan nan nan nan nan 4.4 7.5 6.8 6.7 6.3 5.8 6.0 nan nan nan nan nan 7.0 9.2 8.9 9.1 8.7 8.5 7.8 7.6 9.2 nan nan nan nan nan nan nan nan nan nan nan
nan nan nan nan nan nan nan nan 6.7 5.0 6.7 nan nan nan nan nan nan 6.8 6.7 8.8 9.3 9.5 nan 7.7 8.3 8.2 8.4 8.5 nan nan 4.1 3.7 3.8 4.2 nan nan nan 4.1
5.5 nan 5.4 nan nan nan nan nan nan nan nan nan 6.4 7.1 8.7 9.0 7.4 7.2 7.4 8.1 7.8 8.8 7.8 8.0 8.7 8.9 9.2 8.9 8.7 5.0 3.7 3.2 4.6 4.8 5.0 nan nan nan
nan 2.5 nan nan nan nan nan nan nan 6.7 6.9 9.1 8.7 9.7 9.7 8.6 9.3 8.7 8.3 7.7 8.1 7.4 7.2 7.4 8.1 9.0 9.1 9.3 9.2 7.9 6.6 4.0 4.2 5.4 5.3 5.3 5.2 4.7
nan 5.6 nan nan nan nan nan nan 6.6 nan 8.0 9.1 9.1 8.2 6.7 9.6 9.3 7.7 9.0 8.4 8.6 8.1 6.9 6.8 7.7 8.9 9.1 8.6 8.6 8.5 7.0 8.4 5.1 4.6 4.7 3.7 3.4 3.7
nan nan nan nan 7.1 nan nan nan nan 6.4 9.6 9.5 9.1 9.1 8.8 9.7 9.6 8.4 8.6 8.4 9.2 9.3 9.4 7.8 7.0 7.2 6.9 8.1 8.6 6.9 6.4 6.3 5.4 5.2 5.2 5.1 3.6 3.4
nan nan 8.5 8.6 8.9 7.9 8.9 9.1 9.7 9.8 9.6 9.6 9.7 9.7 9.6 9.6 9.6 9.4 9.2 9.1 9.5 9.4 9.4 9.4 8.5 9.1 7.6 7.4 6.7 7.3 6.4 6.2 5.2 4.6 4.4 6.0 5.6 3.3
nan 9.7 9.8 9.8 9.8 9.8 9.9 9.8 9.9 9.8 9.6 9.6 9.6 9.5 9.5 9.5 9.5 9.4 9.3 9.3 9.5 9.5 9.5 9.1 9.4 9.4 9.5 9.8 7.3 nan 7.3 6.6 5.9 5.6 4.5 5.3 6.0 4.6
7.8 9.7 9.8 9.8 9.8 9.9 9.8 9.8 9.8 9.7 9.7 9.6 9.6 9.4 9.4 9.5 9.4 9.4 9.4 9.5 9.5 9.5 9.4 9.3 9.2 9.1 9.2 9.4 9.4 8.3 nan 6.1 6.3 6.6 6.2 4.5 4.0 nan
8.4 9.8 9.8 9.8 9.8 9.8 9.8 9.7 9.7 9.8 9.6 9.5 9.5 9.4 9.4 9.4 9.4 9.5 9.6 9.6 nan 9.5 9.5 9.4 9.0 nan 7.8 8.4 8.8 7.8 6.5 nan 4.7 6.4 6.2 7.4 6.5 5.3
8.6 9.8 9.8 9.8 9.8 9.7 9.7 9.7 9.8 9.7 9.8 9.6 9.7 9.5 9.5 9.4 9.6 9.6 9.6 9.6 9.6 9.5 9.4 8.8 8.2 8.1 8.8 9.0 9.4 9.5 7.9 6.0 nan nan nan nan 6.9 7.9
9.8 9.8 9.8 9.8 9.7 9.7 9.7 9.8 9.8 9.7 9.7 9.7 9.6 9.5 9.5 9.6 9.6 9.6 9.5 9.5 9.5 9.4 9.3 9.5 8.9 8.1 8.4 8.5 9.3 9.1 9.5 8.2 7.1 7.2 6.1 nan nan nan